[[{"header":{"parameterUnit":"m.s-1","parameterCategory":2,"la1":30.2991,"la2":30.254,"lo1":-89.0895,"lo2":-89.0444,"dy":0.0017,"dx":0.0017,"nx":28,"ny":28,"refTime":"2025-11-26T03:00:00:Z","depth":"0","parameterNumber":2,"parameterNumberName":"U-component_of_CURRENTS"},"data":[0,0,0,0,0,0,0,0,0,0,0,0,0,0,0,0,0,0,0,0,0,0,0,0,0,0,0,0,0,0,0,0,0,0,0,0,0,0,0,0,0,0,0,0,0,0,0,0,0,0,0,0,0,0,0,0,0,0,0.2706,0.2706,0,0.2718,0.2718,0.2718,0.27,0.27,0.2699,0.2699,0.2715,0.2715,0.2716,0,0,0,0,0,0,0,0,0,0,0,0,0,0.2664,0.2664,0.2706,0.2706,0.2707,0.2718,0.2718,0.2718,0.27,0.27,0.2699,0.2699,0.2714,0.2715,0.2716,0,0,0,0,0,0,0,0,0,0,0,0,0,0.2677,0.2665,0.2706,0.2701,0.2701,0.2718,0.2718,0.2718,0.27,0.27,0.2699,0.2698,0.2714,0.2715,0.2716,0.2735,0,0,0.272,0.2721,0,0,0,0,0,0,0,0,0.2676,0.2678,0.2701,0.2702,0.2701,0.2709,0.2709,0.2725,0.27,0.2698,0.2699,0.2698,0.2715,0.2716,0.2716,0.2736,0.2737,0.272,0.2721,0.2721,0.2722,0,0,0,0,0,0,0,0.2676,0.2678,0.2708,0.2702,0.2702,0.2697,0.2698,0.2712,0.2708,0.2698,0.2697,0.2703,0.2715,0.2715,0.2716,0.2737,0.272,0.2721,0.2722,0.2722,0.2878,0.2881,0,0,0,0,0,0,0.268,0.2677,0.2708,0.2709,0.269,0.2699,0.2699,0.2705,0.2708,0.2708,0.2703,0.2702,0.2713,0.2715,0.2717,0.2818,0.2721,0.2722,0.2723,0.2875,0.2879,0.2882,0,0,0,0,0,0,0.2679,0.2683,0.2707,0.2695,0.2698,0.27,0.2706,0.2706,0.2711,0.2712,0.2712,0.271,0.2713,0.2715,0.276,0.2815,0.2723,0.2724,0.287,0.2876,0.2881,0.2969,0,0,0,0,0,0,0.2678,0.2682,0.2687,0.2695,0.2699,0.2739,0.2707,0.2706,0.2716,0.2715,0.2718,0.2719,0.2713,0.2759,0.2761,0.2815,0.2725,0.2866,0.2873,0.2879,0.2962,0.2977,0.2989,0,0,0,0,0,0.2676,0.2689,0.2687,0.2691,0.2706,0.2741,0.2743,0.2739,0.2718,0.2738,0.2746,0.2719,0.2802,0.2762,0.2764,0.282,0.2863,0.2871,0.2878,0.2956,0.2974,0.2989,0,0,0,0,0,0,0.267,0.2689,0.2687,0.2703,0.273,0.2739,0.2751,0.2746,0.2765,0.276,0.2751,0.2755,0.2822,0.2812,0.2768,0.2889,0.2833,0.2841,0.2891,0.2908,0.2921,0.2919,0.2726,0,0,0,0,0,0.2673,0.2688,0.271,0.2725,0.2739,0.2745,0.2755,0.2758,0.2775,0.2781,0.2787,0.2809,0.2856,0.2871,0.2903,0.2955,0.2955,0.2999,0.3013,0.3024,0.3028,0.309,0.3109,0.2908,0.2908,0.2907,0,0,0.2673,0.2686,0.2693,0.2726,0.2738,0.2781,0.2749,0.2775,0.2817,0.2781,0.2836,0.2855,0.2883,0.2955,0.2984,0.295,0.3085,0.3034,0.3043,0.3041,0.31,0.3119,0.3136,0.2913,0.2912,0.2911,0,0,0.2691,0.2697,0.272,0.2752,0.2785,0.2803,0.2815,0.2839,0.2856,0.2912,0.2914,0.2965,0.3011,0.3053,0.3079,0.3187,0.316,0.3203,0.3262,0.3323,0.3339,0.3353,0.3383,0.3399,0.3204,0.3204,0.3205,0,0.269,0.2726,0.2735,0.2777,0.281,0.2819,0.2867,0.2898,0.2936,0.2967,0.2945,0.3052,0.3065,0.3172,0.3213,0.3217,0.3233,0.319,0.3338,0.3352,0.3365,0.3392,0.3409,0.321,0.3209,0.3208,0.3208,0,0.2733,0.2769,0.2791,0.285,0.289,0.2933,0.2983,0.3024,0.304,0.3072,0.3168,0.3193,0.3253,0.3281,0.3276,0.3392,0.3369,0.3349,0.3287,0.3391,0.3413,0.3428,0.3217,0.3215,0.3214,0.3212,0,0,0.2711,0.2802,0.281,0.2849,0.2932,0.2964,0.3055,0.3137,0.3189,0.324,0.3317,0.3403,0.3401,0.3432,0.3442,0.3491,0.3595,0.346,0.346,0.3472,0.3716,0.3618,0.3625,0.3601,0.3604,0.3607,0.3694,0,0.2743,0.2826,0.2871,0.2961,0.3011,0.3067,0.3148,0.3225,0.3283,0.3361,0.3416,0.349,0.3467,0.3494,0.355,0.3585,0.364,0.3571,0.3628,0.3629,0.3517,0.3642,0.3543,0.3606,0.3709,0.3711,0.3713,0,0.2771,0.2827,0.2911,0.3017,0.3042,0.3096,0.3213,0.3286,0.3411,0.346,0.3547,0.3581,0.3682,0.3632,0.375,0.3707,0.3724,0.3739,0.3742,0.3628,0.3561,0.3522,0.363,0.3582,0.3736,0.3735,0.3733,0,0.2741,0.2853,0.2915,0.2953,0.3075,0.3118,0.3182,0.3306,0.339,0.3515,0.3585,0.3693,0.3748,0.3805,0.3837,0.3804,0.3946,0.3901,0.3834,0.3826,0.374,0.3718,0.379,0.3993,0.3993,0.3992,0.3992,0,0.2754,0.2803,0.2896,0.2928,0.3007,0.3092,0.3194,0.3272,0.3418,0.3502,0.3617,0.3697,0.3795,0.3879,0.3891,0.3914,0.3995,0.3869,0.3858,0.3767,0.3748,0.3695,0.3664,0.3996,0.3995,0.3994,0.3994,0,0.2709,0.2774,0.2844,0.2955,0.299,0.3035,0.3193,0.3261,0.3405,0.3519,0.3565,0.3739,0.3818,0.3906,0.3996,0.3972,0.3908,0.3992,0.3861,0.3832,0.3666,0.3643,0.3539,0.3423,0.3922,0.3921,0.3919,0,0.2695,0.2725,0.2833,0.2859,0.2901,0.2996,0.3056,0.3226,0.3297,0.3514,0.3545,0.3703,0.3769,0.3899,0.3907,0.394,0.3847,0.3842,0.3753,0.3668,0.3637,0.3493,0.3392,0.3686,0.3682,0.368,0.3678,0,0.2659,0.2687,0.2733,0.279,0.2838,0.2919,0.3006,0.3076,0.3241,0.3347,0.3452,0.3541,0.3694,0.3699,0.3774,0.3772,0.3673,0.3782,0.3758,0.3513,0.3303,0.318,0.36,0.3654,0.3657,0.3658,0.366,0.3661,0.261,0.2619,0.266,0.2704,0.2753,0.2778,0.2797,0.2895,0.2984,0.3087,0.3248,0.3336,0.3506,0.3596,0.3578,0.353,0.3477,0.3448,0.3447,0.3323,0.3146,0.3487,0.3478,0.3479,0.348,0.3481,0.3482,0,0.2532,0.2541,0.2573,0.2596,0.2584,0.2655,0.2709,0.27,0.2713,0.2872,0.2954,0.3121,0.3197,0.3322,0.3382,0.3268,0.311,0.3182,0.301,0.2938,0.3329,0.3256,0.312,0.312,0.312,0.312,0.312,0.312,0.2488,0.2463,0.2473,0.241,0.2416,0.2356,0.2347,0.2354,0.244,0.2519,0.2628,0.2775,0.3103,0.3288,0.325,0.3155,0.2919,0.2776,0.2738,0.3099,0.3125,0.3149,0.3076,0.2905,0.2905,0.224,0.2235,0.2232]},{"header":{"parameterUnit":"m.s-1","parameterCategory":2,"la1":30.2991,"la2":30.254,"lo1":-89.0895,"lo2":-89.0444,"dy":0.0017,"dx":0.0017,"nx":28,"ny":28,"refTime":"2025-11-26T03:00:00:Z","depth":"0","parameterNumber":3,"parameterNumberName":"V-component_of_CURRENTS"},"data":[0,0,0,0,0,0,0,0,0,0,0,0,0,0,0,0,0,0,0,0,0,0,0,0,0,0,0,0,0,0,0,0,0,0,0,0,0,0,0,0,0,0,0,0,0,0,0,0,0,0,0,0,0,0,0,0,0,0,-0.0206,-0.0206,0,-0.0262,-0.0263,-0.0264,-0.0301,-0.0301,-0.0301,-0.0302,-0.0392,-0.0394,-0.0396,0,0,0,0,0,0,0,0,0,0,0,0,0,-0.0178,-0.0178,-0.0206,-0.0206,-0.0207,-0.0262,-0.0263,-0.0264,-0.0301,-0.0301,-0.0301,-0.0302,-0.0391,-0.0394,-0.0397,0,0,0,0,0,0,0,0,0,0,0,0,0,-0.0209,-0.0178,-0.0205,-0.0231,-0.0234,-0.0262,-0.0263,-0.0264,-0.0301,-0.0301,-0.0301,-0.0302,-0.039,-0.0394,-0.0397,-0.0415,0,0,-0.0408,-0.0409,0,0,0,0,0,0,0,0,-0.0207,-0.021,-0.0227,-0.0229,-0.0232,-0.0274,-0.0286,-0.0316,-0.0301,-0.0277,-0.0302,-0.0302,-0.0354,-0.0361,-0.0373,-0.0419,-0.0423,-0.0408,-0.041,-0.0411,-0.0412,0,0,0,0,0,0,0,-0.0205,-0.0208,-0.0229,-0.0227,-0.0231,-0.0256,-0.026,-0.0292,-0.0316,-0.0279,-0.0282,-0.0286,-0.0356,-0.0369,-0.0375,-0.0424,-0.0408,-0.0411,-0.0413,-0.0414,-0.0509,-0.051,0,0,0,0,0,0,-0.0192,-0.0206,-0.0228,-0.0231,-0.0218,-0.0256,-0.0261,-0.0261,-0.0315,-0.0322,-0.0285,-0.0287,-0.0363,-0.0371,-0.0378,-0.0398,-0.0411,-0.0415,-0.0417,-0.0509,-0.0509,-0.051,0,0,0,0,0,0,-0.0192,-0.0194,-0.0225,-0.0219,-0.0225,-0.0256,-0.0256,-0.0262,-0.0274,-0.0319,-0.0328,-0.029,-0.0364,-0.0374,-0.0406,-0.0402,-0.0416,-0.0419,-0.0508,-0.0509,-0.051,-0.044,0,0,0,0,0,0,-0.019,-0.0193,-0.0189,-0.0218,-0.0224,-0.0236,-0.0256,-0.0263,-0.0275,-0.0278,-0.0326,-0.0334,-0.0365,-0.0401,-0.0409,-0.0407,-0.0422,-0.0508,-0.0509,-0.0509,-0.0442,-0.0439,-0.0436,0,0,0,0,0,-0.0189,-0.0177,-0.0188,-0.0191,-0.0218,-0.0236,-0.0241,-0.0266,-0.0275,-0.0277,-0.0311,-0.0333,-0.0413,-0.0403,-0.0414,-0.0412,-0.0507,-0.0508,-0.0509,-0.0443,-0.0439,-0.0436,0,0,0,0,0,0,-0.0162,-0.018,-0.0193,-0.0187,-0.0209,-0.0241,-0.0242,-0.0261,-0.029,-0.0291,-0.0336,-0.0347,-0.0376,-0.0407,-0.0396,-0.0445,-0.0465,-0.0468,-0.0411,-0.0408,-0.0405,-0.0379,-0.0425,0,0,0,0,0,-0.0154,-0.0151,-0.0177,-0.0173,-0.0179,-0.0211,-0.0221,-0.0238,-0.0266,-0.0278,-0.0314,-0.0354,-0.0389,-0.0407,-0.0444,-0.0467,-0.0486,-0.0476,-0.0473,-0.0469,-0.0457,-0.0489,-0.0486,-0.0513,-0.0513,-0.0513,0,0,-0.0143,-0.0153,-0.0151,-0.0168,-0.0184,-0.0184,-0.0217,-0.0226,-0.0228,-0.0284,-0.03,-0.0344,-0.0394,-0.042,-0.0436,-0.0444,-0.0472,-0.0471,-0.0467,-0.0457,-0.049,-0.0487,-0.0484,-0.0514,-0.0514,-0.0514,0,0,-0.0114,-0.0126,-0.0112,-0.0125,-0.0143,-0.0162,-0.0161,-0.0193,-0.0209,-0.0233,-0.0274,-0.0313,-0.0367,-0.0399,-0.0423,-0.0425,-0.0454,-0.0444,-0.0403,-0.0433,-0.0431,-0.0429,-0.0439,-0.0438,-0.044,-0.044,-0.044,0,-0.01,-0.0084,-0.0112,-0.0103,-0.0102,-0.0146,-0.0128,-0.0153,-0.0194,-0.0203,-0.0229,-0.0309,-0.0354,-0.038,-0.0386,-0.0415,-0.0431,-0.0408,-0.0426,-0.0425,-0.0424,-0.0435,-0.0435,-0.0437,-0.0437,-0.0437,-0.0438,0,-0.006,-0.005,-0.0041,-0.0041,-0.0047,-0.004,-0.0071,-0.0085,-0.0113,-0.0142,-0.018,-0.0247,-0.0289,-0.0319,-0.0354,-0.0372,-0.0385,-0.0416,-0.0427,-0.0416,-0.0429,-0.0431,-0.0432,-0.0433,-0.0434,-0.0435,0,0,-0.0017,-0.0012,-0.0008,0.001,-0.0009,-0.0004,-0.0009,-0.0021,-0.0012,-0.0078,-0.0075,-0.0159,-0.0198,-0.0228,-0.0283,-0.0319,-0.0331,-0.0359,-0.0363,-0.0352,-0.0382,-0.0374,-0.0375,-0.0365,-0.0366,-0.0366,-0.0389,0,0.0027,0.0071,0.0055,0.0095,0.012,0.0083,0.0088,0.0065,0.0036,0.0023,-0.0058,-0.0084,-0.0163,-0.0179,-0.0227,-0.0302,-0.0334,-0.0321,-0.0409,-0.0411,-0.0391,-0.0376,-0.036,-0.0378,-0.039,-0.0391,-0.0391,0,0.0077,0.0103,0.0155,0.0181,0.0188,0.0197,0.0211,0.0208,0.0168,0.0143,0.0094,0.0032,-0.0029,-0.0099,-0.0212,-0.0199,-0.0281,-0.0347,-0.0351,-0.0366,-0.0405,-0.0396,-0.0381,-0.0546,-0.0393,-0.0393,-0.0393,0,0.0141,0.0176,0.0227,0.0234,0.0248,0.0262,0.0266,0.0244,0.027,0.0222,0.0235,0.0136,0.0112,-0.0016,-0.0155,-0.0182,-0.0273,-0.0328,-0.0398,-0.0398,-0.0412,-0.0413,-0.0552,-0.0408,-0.0408,-0.0408,-0.0408,0,0.0204,0.0243,0.0261,0.0288,0.0356,0.033,0.0393,0.0374,0.0378,0.0424,0.0306,0.0331,0.0132,0.0053,-0.0104,-0.0236,-0.0233,-0.0377,-0.0402,-0.0388,-0.0386,-0.0554,-0.0669,-0.0408,-0.0408,-0.0408,-0.0408,0,0.0268,0.0276,0.0338,0.0368,0.0389,0.0434,0.0495,0.0542,0.0518,0.0577,0.0571,0.0496,0.0392,0.0197,0.0011,-0.0138,-0.0385,-0.0344,-0.0301,-0.0321,-0.0547,-0.0658,-0.0826,-0.0894,-0.0422,-0.0422,-0.0422,0,0.0304,0.0343,0.041,0.0462,0.0479,0.0548,0.0607,0.0614,0.0675,0.0692,0.0738,0.0658,0.0633,0.037,0.0084,-0.0172,-0.0361,-0.0332,-0.0394,-0.0544,-0.0687,-0.077,-0.0821,-0.0386,-0.0386,-0.0385,-0.0385,0,0.0378,0.0398,0.0453,0.0564,0.0636,0.073,0.0808,0.0886,0.0902,0.0957,0.1022,0.1003,0.0747,0.0512,0.0149,-0.0052,-0.0453,-0.0333,-0.0511,-0.0683,-0.0761,-0.0841,-0.0377,-0.0382,-0.0383,-0.0383,-0.0383,-0.0383,0.0436,0.0491,0.0569,0.0679,0.077,0.0893,0.0988,0.1081,0.1204,0.129,0.1255,0.1263,0.0884,0.0403,0.0111,-0.0407,-0.0438,-0.0573,-0.0695,-0.0763,-0.0836,-0.0349,-0.0372,-0.0372,-0.0372,-0.0373,-0.0373,0,0.0513,0.0579,0.0683,0.0811,0.0929,0.0959,0.1117,0.1216,0.1375,0.1462,0.1518,0.135,0.0883,0.0383,-0.031,-0.0689,-0.0848,-0.0915,-0.105,-0.1085,-0.0665,-0.067,-0.0731,-0.0731,-0.0731,-0.0731,-0.073,-0.073,0.0553,0.0668,0.0724,0.0928,0.1021,0.1185,0.1281,0.1425,0.1527,0.1656,0.1675,0.1652,0.1279,-0.0002,-0.0861,-0.1074,-0.1351,-0.1429,-0.1562,-0.1306,-0.1284,-0.1263,-0.1293,-0.1484,-0.1485,-0.1913,-0.1918,-0.1922]}],[{"header":{"parameterUnit":"m.s-1","parameterCategory":2,"la1":30.2991,"la2":30.254,"lo1":-89.0895,"lo2":-89.0444,"dy":0.0017,"dx":0.0017,"nx":28,"ny":28,"refTime":"2025-11-26T03:00:00:Z","depth":"2","parameterNumber":2,"parameterNumberName":"U-component_of_CURRENTS"},"data":[0,0,0,0,0,0,0,0,0,0,0,0,0,0,0,0,0,0,0,0,0,0,0,0,0,0,0,0,0,0,0,0,0,0,0,0,0,0,0,0,0,0,0,0,0,0,0,0,0,0,0,0,0,0,0,0,0,0,0.2491,0.2491,0,0.2504,0.2504,0.2504,0.2499,0.2499,0.2499,0.2499,0.2511,0.2512,0.2512,0,0,0,0,0,0,0,0,0,0,0,0,0,0.2447,0.2448,0.2491,0.2491,0.2491,0.2504,0.2504,0.2504,0.2499,0.2499,0.2499,0.2498,0.2511,0.2512,0.2512,0,0,0,0,0,0,0,0,0,0,0,0,0,0.2462,0.2448,0.2491,0.2492,0.2492,0.2504,0.2504,0.2504,0.2499,0.2499,0.2499,0.2498,0.2511,0.2512,0.2512,0.2519,0,0,0.2514,0.2514,0,0,0,0,0,0,0,0,0.2461,0.2463,0.2491,0.2492,0.2493,0.2502,0.2494,0.251,0.2499,0.2494,0.2499,0.2498,0.251,0.2511,0.251,0.252,0.252,0.2514,0.2515,0.2515,0.2515,0,0,0,0,0,0,0,0.246,0.2462,0.2494,0.2492,0.2493,0.2488,0.249,0.2497,0.25,0.2494,0.2494,0.25,0.251,0.2509,0.251,0.2521,0.2514,0.2515,0.2515,0.2515,0.2637,0.264,0,0,0,0,0,0,0.2464,0.2461,0.2493,0.2494,0.2479,0.2489,0.2491,0.2497,0.25,0.2502,0.25,0.25,0.2508,0.2509,0.2511,0.2613,0.2515,0.2516,0.2516,0.2634,0.2638,0.2641,0,0,0,0,0,0,0.2463,0.2467,0.2493,0.248,0.2483,0.249,0.2497,0.2497,0.2508,0.2505,0.2506,0.2512,0.2508,0.251,0.255,0.261,0.2516,0.2516,0.2631,0.2635,0.2639,0.2757,0,0,0,0,0,0,0.2462,0.2466,0.2474,0.248,0.2484,0.2522,0.2497,0.2498,0.2512,0.2512,0.2516,0.2516,0.2508,0.255,0.2551,0.2609,0.2517,0.2627,0.2633,0.2638,0.275,0.2765,0.2778,0,0,0,0,0,0.246,0.2473,0.2474,0.2478,0.2494,0.2524,0.2526,0.2528,0.2513,0.2533,0.2543,0.2517,0.2585,0.2552,0.2553,0.2613,0.2625,0.2631,0.2637,0.2744,0.2762,0.2778,0,0,0,0,0,0,0.2455,0.2474,0.2475,0.2492,0.2517,0.2524,0.2537,0.2536,0.2556,0.2556,0.2545,0.2548,0.2613,0.2594,0.2558,0.2665,0.2603,0.261,0.2684,0.2701,0.2715,0.2697,0.2517,0,0,0,0,0,0.2459,0.2474,0.2495,0.2511,0.2524,0.2532,0.2542,0.2549,0.2565,0.2573,0.2577,0.2594,0.2638,0.2652,0.2676,0.2723,0.2711,0.2765,0.2779,0.2791,0.2779,0.2835,0.2853,0.2662,0.2662,0.2662,0,0,0.246,0.2474,0.2482,0.2512,0.2525,0.2562,0.2538,0.2565,0.2605,0.2572,0.2623,0.2643,0.2663,0.2732,0.2758,0.2722,0.2844,0.2799,0.2809,0.279,0.2843,0.2862,0.2878,0.2666,0.2665,0.2665,0,0,0.2475,0.2487,0.2507,0.2535,0.2568,0.2586,0.2599,0.2622,0.2642,0.2694,0.2699,0.275,0.2788,0.2827,0.285,0.2952,0.2921,0.2967,0.3019,0.3076,0.3091,0.3105,0.3127,0.3142,0.297,0.297,0.297,0,0.2476,0.2508,0.252,0.2554,0.2586,0.2602,0.2644,0.2675,0.2711,0.2736,0.2726,0.282,0.2837,0.2936,0.298,0.2984,0.2995,0.2954,0.3093,0.3106,0.3118,0.3138,0.3152,0.2976,0.2976,0.2975,0.2974,0,0.2511,0.2545,0.2563,0.2617,0.2654,0.2696,0.2744,0.2783,0.2806,0.2832,0.2922,0.2956,0.3009,0.3041,0.3042,0.315,0.3125,0.311,0.3046,0.3144,0.3159,0.3172,0.2986,0.2983,0.2981,0.298,0,0,0.2494,0.2572,0.258,0.2613,0.2693,0.2721,0.2806,0.2878,0.2927,0.2975,0.3046,0.3134,0.314,0.3167,0.319,0.3234,0.3341,0.3209,0.3209,0.3224,0.3449,0.3359,0.3364,0.3356,0.3359,0.3361,0.343,0,0.2521,0.2588,0.2631,0.2709,0.275,0.2808,0.288,0.2947,0.3009,0.3081,0.3135,0.3209,0.3197,0.3237,0.329,0.333,0.3378,0.3321,0.3356,0.3356,0.3259,0.3377,0.3129,0.3164,0.3442,0.3444,0.3446,0,0.2541,0.2587,0.266,0.275,0.2773,0.2825,0.2936,0.3007,0.3118,0.3169,0.3254,0.3287,0.3385,0.3353,0.3461,0.3428,0.3448,0.3461,0.3464,0.3339,0.3291,0.3109,0.3176,0.3466,0.3465,0.3463,0.3462,0,0.2509,0.2606,0.2662,0.2696,0.2801,0.2846,0.291,0.3022,0.3097,0.3228,0.3292,0.3392,0.3458,0.3505,0.3533,0.3515,0.3623,0.3602,0.3536,0.3529,0.3299,0.3266,0.3676,0.3676,0.3675,0.3675,0.3675,0,0.2517,0.256,0.2646,0.2674,0.2743,0.2824,0.2922,0.3001,0.3137,0.321,0.333,0.34,0.3502,0.3566,0.3574,0.3593,0.3665,0.3559,0.3553,0.3334,0.3306,0.354,0.3524,0.3678,0.3677,0.3677,0.3676,0,0.2471,0.2531,0.2594,0.2696,0.2727,0.2774,0.292,0.2985,0.3127,0.3236,0.328,0.3441,0.3516,0.3586,0.3664,0.3643,0.3662,0.3644,0.3364,0.3324,0.3519,0.3508,0.3594,0.3592,0.359,0.3588,0.3587,0,0.2454,0.2479,0.2581,0.2608,0.2654,0.2744,0.2801,0.296,0.3027,0.3224,0.325,0.3396,0.3455,0.356,0.355,0.3569,0.3623,0.3331,0.3252,0.3531,0.3517,0.3509,0.3501,0.3,0.2994,0.2989,0.2985,0,0.2417,0.2449,0.2489,0.2545,0.26,0.2669,0.2754,0.2812,0.2971,0.3068,0.3158,0.3232,0.3358,0.3278,0.333,0.3294,0.3309,0.323,0.3619,0.3056,0.2976,0.296,0.2971,0.2941,0.2945,0.2949,0.2951,0.2953,0.2372,0.2382,0.2423,0.2466,0.252,0.2547,0.2564,0.265,0.2727,0.2813,0.295,0.2982,0.3055,0.3012,0.2929,0.2877,0.31,0.2962,0.2976,0.2995,0.2911,0.2831,0.2752,0.2755,0.2758,0.2761,0.2763,0,0.2299,0.2313,0.2342,0.2372,0.2369,0.2439,0.2486,0.2469,0.2481,0.2591,0.2653,0.2489,0.2478,0.2538,0.2415,0.2434,0.2396,0.2317,0.2246,0.2294,0.2335,0.2214,0.1873,0.1869,0.1866,0.1863,0,0,0.2261,0.224,0.2248,0.2201,0.2218,0.2173,0.2168,0.2155,0.2194,0.2173,0.2176,0.2376,0.2485,0.2142,0.2117,0.197,0.2105,0.1892,0.2618,0.2584,0.262,0.2733,0.2604,0,0,0,0,0]},{"header":{"parameterUnit":"m.s-1","parameterCategory":2,"la1":30.2991,"la2":30.254,"lo1":-89.0895,"lo2":-89.0444,"dy":0.0017,"dx":0.0017,"nx":28,"ny":28,"refTime":"2025-11-26T03:00:00:Z","depth":"2","parameterNumber":3,"parameterNumberName":"V-component_of_CURRENTS"},"data":[0,0,0,0,0,0,0,0,0,0,0,0,0,0,0,0,0,0,0,0,0,0,0,0,0,0,0,0,0,0,0,0,0,0,0,0,0,0,0,0,0,0,0,0,0,0,0,0,0,0,0,0,0,0,0,0,0,0,-0.0033,-0.0033,0,-0.0086,-0.0087,-0.0088,-0.0127,-0.0128,-0.0128,-0.0128,-0.0195,-0.0196,-0.0198,0,0,0,0,0,0,0,0,0,0,0,0,0,-0.0006,-0.0006,-0.0033,-0.0033,-0.0034,-0.0086,-0.0087,-0.0088,-0.0127,-0.0128,-0.0128,-0.0128,-0.0194,-0.0196,-0.0198,0,0,0,0,0,0,0,0,0,0,0,0,0,-0.0035,-0.0006,-0.0033,-0.0059,-0.0062,-0.0086,-0.0087,-0.0088,-0.0127,-0.0128,-0.0128,-0.0128,-0.0194,-0.0196,-0.0198,-0.0205,0,0,-0.0205,-0.0206,0,0,0,0,0,0,0,0,-0.0034,-0.0036,-0.0055,-0.0057,-0.0061,-0.01,-0.0102,-0.0127,-0.0127,-0.0103,-0.0128,-0.0129,-0.0163,-0.0168,-0.0179,-0.0208,-0.0211,-0.0206,-0.0207,-0.0208,-0.0209,0,0,0,0,0,0,0,-0.0031,-0.0035,-0.0055,-0.0055,-0.0059,-0.0083,-0.0087,-0.0107,-0.0132,-0.0106,-0.0108,-0.0113,-0.0165,-0.0176,-0.018,-0.0212,-0.0206,-0.0208,-0.0209,-0.021,-0.0254,-0.0254,0,0,0,0,0,0,-0.002,-0.0032,-0.0053,-0.0056,-0.0047,-0.0083,-0.0087,-0.0088,-0.0131,-0.0138,-0.0112,-0.0114,-0.0172,-0.0178,-0.0183,-0.0192,-0.0208,-0.021,-0.0211,-0.0254,-0.0254,-0.0254,0,0,0,0,0,0,-0.0019,-0.0021,-0.0051,-0.0045,-0.0051,-0.0082,-0.0082,-0.0088,-0.0101,-0.0136,-0.0143,-0.0118,-0.0173,-0.018,-0.0198,-0.0195,-0.0211,-0.0213,-0.0255,-0.0254,-0.0254,-0.0211,0,0,0,0,0,0,-0.0018,-0.0021,-0.0018,-0.0044,-0.005,-0.0059,-0.0082,-0.0089,-0.0102,-0.0105,-0.0143,-0.015,-0.0174,-0.0194,-0.02,-0.0198,-0.0215,-0.0255,-0.0254,-0.0254,-0.0212,-0.0209,-0.0206,0,0,0,0,0,-0.0017,-0.0005,-0.0017,-0.002,-0.0045,-0.0058,-0.0063,-0.0088,-0.0102,-0.0102,-0.0129,-0.0149,-0.0196,-0.0196,-0.0203,-0.0202,-0.0255,-0.0254,-0.0254,-0.0214,-0.021,-0.0206,0,0,0,0,0,0,0.0008,-0.0008,-0.0023,-0.0016,-0.0035,-0.0064,-0.0065,-0.0085,-0.0107,-0.011,-0.0146,-0.0154,-0.017,-0.019,-0.0189,-0.0213,-0.0229,-0.023,-0.0196,-0.0192,-0.0189,-0.0155,-0.0217,0,0,0,0,0,0.0016,0.002,-0.0004,-0.0001,-0.0006,-0.0037,-0.0046,-0.0063,-0.0085,-0.0096,-0.0123,-0.015,-0.0174,-0.0185,-0.0208,-0.0219,-0.0236,-0.0224,-0.022,-0.0217,-0.0195,-0.0224,-0.0222,-0.0252,-0.0252,-0.0252,0,0,0.0026,0.0017,0.0019,0.0005,-0.0011,-0.0006,-0.0043,-0.0051,-0.0047,-0.0099,-0.0102,-0.014,-0.0174,-0.0189,-0.0198,-0.0205,-0.0219,-0.0217,-0.0214,-0.0193,-0.0224,-0.0221,-0.0218,-0.0252,-0.0252,-0.0252,0,0,0.0058,0.0042,0.0059,0.005,0.0032,0.0016,0.0016,-0.0011,-0.0024,-0.0037,-0.0074,-0.0104,-0.0139,-0.0162,-0.0179,-0.0169,-0.0202,-0.0185,-0.014,-0.017,-0.0167,-0.0165,-0.0187,-0.0188,-0.0182,-0.0182,-0.0182,0,0.0071,0.009,0.0061,0.0076,0.0078,0.0032,0.0054,0.0035,0.0003,0.0002,-0.0029,-0.0083,-0.0122,-0.0133,-0.0136,-0.0161,-0.0181,-0.0153,-0.0165,-0.0163,-0.0161,-0.0185,-0.0186,-0.0179,-0.018,-0.018,-0.018,0,0.0117,0.013,0.014,0.0147,0.0143,0.0153,0.0127,0.012,0.0092,0.0071,0.0047,-0.0014,-0.0044,-0.0071,-0.0103,-0.0112,-0.0131,-0.0159,-0.0172,-0.0155,-0.0182,-0.0183,-0.0176,-0.0177,-0.0178,-0.0178,0,0,0.0154,0.0171,0.0175,0.0198,0.0184,0.0193,0.0199,0.0198,0.0212,0.0157,0.0168,0.0099,0.0054,0.0034,-0.0023,-0.0052,-0.0078,-0.0097,-0.01,-0.0113,-0.0138,-0.0152,-0.0155,-0.0113,-0.0112,-0.0112,-0.0163,0,0.0201,0.0256,0.0245,0.0296,0.0326,0.0294,0.0309,0.0298,0.0272,0.0267,0.0195,0.0174,0.0097,0.0073,0.0031,-0.0044,-0.0078,-0.0061,-0.0156,-0.0158,-0.0168,-0.0156,-0.014,-0.0183,-0.0164,-0.0165,-0.0165,0,0.0254,0.0287,0.0348,0.0389,0.0398,0.0412,0.0435,0.0441,0.0415,0.0393,0.0349,0.0288,0.0233,0.016,0.0047,0.006,-0.0029,-0.0094,-0.0098,-0.012,-0.0174,-0.0196,-0.0187,-0.0168,-0.0168,-0.0167,-0.0167,0,0.0311,0.0362,0.0418,0.043,0.046,0.0478,0.0487,0.0478,0.0508,0.0467,0.0476,0.0388,0.0353,0.0233,0.0085,0.0065,-0.0034,-0.0083,-0.0177,-0.0179,-0.0185,-0.0187,-0.0158,-0.0158,-0.0157,-0.0157,-0.0157,0,0.0373,0.0418,0.0449,0.0479,0.0554,0.054,0.0605,0.0595,0.0605,0.065,0.054,0.0553,0.037,0.0284,0.0132,-0.0017,-0.0004,-0.0154,-0.0188,-0.0171,-0.0171,-0.0173,-0.0174,-0.0159,-0.0159,-0.0158,-0.0158,0,0.043,0.0446,0.0516,0.056,0.0583,0.063,0.0696,0.0744,0.0725,0.0779,0.0771,0.0691,0.0569,0.0385,0.0201,0.006,-0.0093,-0.0154,-0.0116,-0.0146,-0.0232,-0.023,-0.0258,-0.0258,-0.0259,-0.026,-0.026,0,0.0464,0.0507,0.0583,0.0633,0.0653,0.0726,0.0786,0.0804,0.086,0.087,0.0908,0.0809,0.0756,0.0484,0.0215,-0.0039,-0.0083,-0.019,-0.023,-0.0208,-0.024,-0.0237,-0.0235,-0.0228,-0.0228,-0.0228,-0.0228,0,0.0535,0.0554,0.0613,0.072,0.079,0.0885,0.0961,0.1033,0.1055,0.1095,0.1126,0.1084,0.0815,0.0564,0.0211,0.0033,-0.015,-0.02,-0.0183,-0.0202,-0.0184,-0.0213,-0.0211,-0.0229,-0.0229,-0.0229,-0.0229,-0.0229,0.0584,0.0638,0.0713,0.0818,0.0905,0.1016,0.1103,0.1185,0.1287,0.1339,0.1294,0.1228,0.0933,0.0485,0.0175,-0.0158,-0.0147,-0.0268,-0.0266,-0.0265,-0.0249,-0.0232,-0.0284,-0.0284,-0.0285,-0.0285,-0.0285,0,0.0649,0.071,0.0809,0.0926,0.1031,0.1065,0.121,0.1289,0.1408,0.1444,0.1457,0.1176,0.0882,0.0536,0.0047,-0.0237,-0.0268,-0.0331,-0.0307,-0.0304,-0.0301,-0.0287,-0.0333,-0.0334,-0.0335,-0.0336,0,0,0.0681,0.0784,0.0835,0.1011,0.1096,0.1241,0.1326,0.1431,0.149,0.1528,0.1488,0.1405,0.0984,0.0627,0.023,-0.0053,-0.0113,-0.0112,-0.0042,0.0036,0.0042,-0.0235,-0.0205,0,0,0,0,0]}],[{"header":{"parameterUnit":"m.s-1","parameterCategory":2,"la1":30.2991,"la2":30.254,"lo1":-89.0895,"lo2":-89.0444,"dy":0.0017,"dx":0.0017,"nx":28,"ny":28,"refTime":"2025-11-26T03:00:00:Z","depth":"4","parameterNumber":2,"parameterNumberName":"U-component_of_CURRENTS"},"data":[0,0,0,0,0,0,0,0,0,0,0,0,0,0,0,0,0,0,0,0,0,0,0,0,0,0,0,0,0,0,0,0,0,0,0,0,0,0,0,0,0,0,0,0,0,0,0,0,0,0,0,0,0,0,0,0,0,0,0.1606,0.1607,0,0.1662,0.1662,0.1663,0.1712,0.1713,0.1714,0.1714,0.1755,0.1755,0.1756,0,0,0,0,0,0,0,0,0,0,0,0,0,0.1526,0.1527,0.1606,0.1607,0.1608,0.1662,0.1662,0.1663,0.1712,0.1713,0.1714,0.1715,0.1755,0.1755,0.1756,0,0,0,0,0,0,0,0,0,0,0,0,0,0.1568,0.1528,0.1606,0.164,0.1644,0.1662,0.1662,0.1663,0.1712,0.1713,0.1714,0.1715,0.1755,0.1755,0.1756,0.1737,0,0,0.1758,0.1758,0,0,0,0,0,0,0,0,0.1565,0.157,0.1634,0.1638,0.1642,0.1683,0.1649,0.1688,0.1712,0.1684,0.1714,0.1716,0.173,0.1733,0.1738,0.1739,0.174,0.1758,0.1758,0.1758,0.1758,0,0,0,0,0,0,0,0.1562,0.1568,0.1626,0.1635,0.164,0.1648,0.1655,0.1657,0.1698,0.1686,0.1691,0.17,0.1732,0.1737,0.1739,0.1741,0.1758,0.1758,0.1759,0.1759,0.1816,0.1817,0,0,0,0,0,0,0.1559,0.1565,0.1624,0.1628,0.1608,0.1648,0.1656,0.1667,0.1699,0.1705,0.1699,0.1702,0.1736,0.1739,0.1741,0.1815,0.1758,0.1759,0.1759,0.1814,0.1816,0.1817,0,0,0,0,0,0,0.1557,0.1564,0.1622,0.1599,0.1608,0.1649,0.166,0.1668,0.1709,0.1708,0.1715,0.1737,0.1737,0.174,0.1768,0.1813,0.1759,0.176,0.1813,0.1815,0.1817,0.1901,0,0,0,0,0,0,0.1555,0.1563,0.1585,0.1599,0.1609,0.1656,0.166,0.1668,0.1712,0.1717,0.1743,0.1746,0.1738,0.1767,0.1769,0.1813,0.176,0.1812,0.1814,0.1816,0.1897,0.1906,0.1913,0,0,0,0,0,0.1551,0.1572,0.1586,0.1594,0.1633,0.1657,0.1663,0.1694,0.1713,0.1735,0.175,0.1747,0.1783,0.1769,0.177,0.1815,0.1811,0.1813,0.1816,0.1893,0.1904,0.1913,0,0,0,0,0,0,0.155,0.158,0.1595,0.1625,0.1651,0.1667,0.1697,0.1713,0.1743,0.1758,0.1756,0.176,0.1801,0.1791,0.1776,0.1836,0.1798,0.1801,0.1857,0.1867,0.1874,0.1877,0.176,0,0,0,0,0,0.1559,0.1588,0.161,0.1639,0.1656,0.1683,0.1704,0.1723,0.1743,0.1761,0.1776,0.1792,0.1805,0.1824,0.1827,0.186,0.186,0.189,0.1898,0.1905,0.1908,0.1944,0.1956,0.1826,0.1826,0.1826,0,0,0.1567,0.1589,0.1606,0.1642,0.1668,0.1691,0.17,0.174,0.1765,0.1757,0.1807,0.1819,0.1817,0.1855,0.1873,0.186,0.1945,0.1909,0.1915,0.1913,0.1948,0.1961,0.1972,0.1828,0.1827,0.1827,0,0,0.1584,0.1619,0.1644,0.1666,0.1709,0.1723,0.1743,0.1776,0.1805,0.1841,0.1846,0.1883,0.1905,0.1919,0.1925,0.1977,0.1981,0.199,0.2045,0.2081,0.2092,0.2102,0.2133,0.2145,0.2002,0.2003,0.2003,0,0.1596,0.1626,0.1656,0.168,0.1703,0.1741,0.1766,0.1794,0.1834,0.1861,0.1869,0.1926,0.1932,0.1978,0.2005,0.1998,0.2019,0.2011,0.2093,0.2103,0.2111,0.214,0.2153,0.2007,0.2006,0.2006,0.2006,0,0.1613,0.1651,0.167,0.1712,0.174,0.1772,0.1807,0.1851,0.1892,0.1917,0.1983,0.1998,0.2037,0.2052,0.2049,0.2121,0.2118,0.2095,0.2072,0.213,0.2156,0.2168,0.2013,0.2012,0.201,0.2009,0,0,0.1602,0.167,0.168,0.1704,0.1761,0.178,0.1838,0.1892,0.1941,0.1991,0.2052,0.2094,0.2126,0.2134,0.2149,0.2188,0.2276,0.2184,0.2184,0.222,0.237,0.2234,0.2233,0.2282,0.2284,0.2285,0.2369,0,0.1611,0.1656,0.1691,0.174,0.1764,0.1818,0.1865,0.1921,0.1981,0.2049,0.2093,0.2153,0.215,0.2195,0.2235,0.2265,0.2308,0.2256,0.2302,0.2303,0.218,0.2241,0.2292,0.2377,0.238,0.2381,0.2383,0,0.1607,0.1641,0.169,0.1756,0.1775,0.1818,0.1909,0.1955,0.2054,0.2105,0.2182,0.222,0.2303,0.2284,0.2375,0.2352,0.2373,0.2386,0.2389,0.2236,0.2187,0.2302,0.2402,0.2401,0.2399,0.2398,0.2397,0,0.1566,0.1636,0.1679,0.1699,0.178,0.1832,0.1889,0.1985,0.2043,0.216,0.2224,0.2305,0.2376,0.2413,0.246,0.2436,0.2546,0.2504,0.2397,0.2388,0.2449,0.2437,0.2559,0.2559,0.2559,0.2559,0.2559,0,0.1539,0.1575,0.1674,0.1692,0.1758,0.1823,0.1913,0.1983,0.21,0.2167,0.2262,0.2326,0.2419,0.2489,0.2499,0.2491,0.2582,0.2415,0.2402,0.2483,0.2474,0.2457,0.2444,0.2562,0.2561,0.2561,0.256,0,0.1479,0.1544,0.1595,0.1698,0.1741,0.179,0.1928,0.1981,0.211,0.2207,0.2254,0.2387,0.2468,0.2535,0.2607,0.2535,0.2537,0.251,0.2616,0.2606,0.2344,0.2335,0.2382,0.2378,0.2375,0.2372,0.2369,0,0.1446,0.1471,0.1591,0.1628,0.1686,0.1779,0.1838,0.1975,0.203,0.2216,0.2242,0.2388,0.2454,0.2452,0.2525,0.2537,0.2503,0.2488,0.2384,0.2344,0.2328,0.2323,0.2319,0.2364,0.2363,0.2362,0.2361,0,0.1378,0.1442,0.1486,0.157,0.1643,0.1709,0.1809,0.1843,0.1989,0.2125,0.2186,0.2232,0.2322,0.2362,0.2406,0.24,0.2482,0.245,0.2456,0.2358,0.2323,0.2308,0.2308,0.2349,0.2351,0.2352,0.2353,0,0.1334,0.1351,0.1427,0.1489,0.1573,0.1611,0.1678,0.1742,0.182,0.2011,0.2028,0.2171,0.2301,0.2294,0.2326,0.2323,0.2269,0.2174,0.2193,0.2207,0.2108,0.2035,0.1971,0,0,0,0,0,0.1275,0.1286,0.1335,0.1392,0.1472,0.1526,0.1637,0.1703,0.1846,0.1839,0.193,0.1997,0.2053,0.2126,0.2084,0.2243,0.2278,0.2184,0.2179,0.2283,0.2297,0.2195,0,0,0,0,0,0,0.1232,0.1275,0.1295,0.1302,0.1326,0.1399,0.1468,0.1566,0.1567,0.172,0.176,0.1877,0.196,0.206,0.2048,0.2069,0.2024,0.2274,0.2269,0.2275,0.2288,0.2299,0.2199,0,0,0,0,0]},{"header":{"parameterUnit":"m.s-1","parameterCategory":2,"la1":30.2991,"la2":30.254,"lo1":-89.0895,"lo2":-89.0444,"dy":0.0017,"dx":0.0017,"nx":28,"ny":28,"refTime":"2025-11-26T03:00:00:Z","depth":"4","parameterNumber":3,"parameterNumberName":"V-component_of_CURRENTS"},"data":[0,0,0,0,0,0,0,0,0,0,0,0,0,0,0,0,0,0,0,0,0,0,0,0,0,0,0,0,0,0,0,0,0,0,0,0,0,0,0,0,0,0,0,0,0,0,0,0,0,0,0,0,0,0,0,0,0,0,0.0101,0.0101,0,0.0066,0.0066,0.0065,0.0039,0.0039,0.0039,0.0039,0.0014,0.0014,0.0013,0,0,0,0,0,0,0,0,0,0,0,0,0,0.0119,0.0119,0.0101,0.0101,0.01,0.0066,0.0066,0.0065,0.0039,0.0039,0.0039,0.0038,0.0014,0.0014,0.0013,0,0,0,0,0,0,0,0,0,0,0,0,0,0.01,0.0119,0.0101,0.0083,0.0082,0.0066,0.0066,0.0065,0.0039,0.0039,0.0039,0.0038,0.0015,0.0014,0.0013,0.0015,0,0,0.0011,0.0011,0,0,0,0,0,0,0,0,0.0101,0.01,0.0087,0.0085,0.0082,0.0057,0.0063,0.0049,0.0039,0.0055,0.0039,0.0038,0.003,0.0028,0.0022,0.0014,0.0013,0.0011,0.0011,0.001,0.001,0,0,0,0,0,0,0,0.0103,0.0101,0.0087,0.0086,0.0084,0.0068,0.0065,0.006,0.0045,0.0054,0.0052,0.0048,0.0029,0.0022,0.0021,0.0013,0.0011,0.0011,0.001,0.001,0.0038,0.0039,0,0,0,0,0,0,0.0109,0.0102,0.0088,0.0086,0.0092,0.0068,0.0065,0.0065,0.0044,0.0041,0.0049,0.0047,0.0024,0.0022,0.002,0.0048,0.001,0.001,0.0009,0.0037,0.0038,0.0039,0,0,0,0,0,0,0.011,0.0109,0.009,0.0093,0.009,0.0068,0.0069,0.0065,0.0058,0.0041,0.0037,0.0046,0.0023,0.0021,0.0031,0.0046,0.0009,0.0009,0.0035,0.0037,0.0039,0.0087,0,0,0,0,0,0,0.0111,0.0109,0.0113,0.0094,0.009,0.0089,0.0069,0.0064,0.0057,0.0055,0.0038,0.0035,0.0023,0.0032,0.003,0.0044,0.0008,0.0034,0.0036,0.0038,0.0084,0.009,0.0096,0,0,0,0,0,0.0112,0.0122,0.0113,0.0112,0.0095,0.009,0.0087,0.007,0.0057,0.0061,0.0056,0.0035,0.0044,0.0033,0.003,0.0044,0.0033,0.0035,0.0038,0.0082,0.0089,0.0096,0,0,0,0,0,0,0.0131,0.0119,0.011,0.0115,0.0106,0.0086,0.0087,0.0073,0.007,0.0069,0.005,0.0048,0.0062,0.005,0.0037,0.006,0.0035,0.0037,0.0069,0.0076,0.0082,0.0088,0.0008,0,0,0,0,0,0.0137,0.0142,0.0126,0.0131,0.0128,0.0107,0.0102,0.0091,0.0084,0.0081,0.0071,0.0066,0.007,0.0071,0.007,0.0081,0.0051,0.009,0.0096,0.0101,0.0105,0.0077,0.008,0.0048,0.0048,0.0048,0,0,0.0146,0.014,0.0143,0.0136,0.0126,0.0137,0.0104,0.0102,0.0115,0.0081,0.0098,0.0086,0.0079,0.0095,0.01,0.0086,0.0093,0.0104,0.0108,0.011,0.0079,0.0082,0.0085,0.0049,0.0049,0.0049,0,0,0.0172,0.0161,0.0176,0.0176,0.0167,0.0158,0.0159,0.0144,0.0141,0.0154,0.0136,0.0134,0.0138,0.0134,0.0134,0.0171,0.0125,0.0171,0.0203,0.0176,0.0178,0.0179,0.0137,0.0135,0.0173,0.0173,0.0173,0,0.0183,0.0203,0.018,0.0198,0.0206,0.0172,0.0197,0.019,0.0182,0.0186,0.017,0.0172,0.0159,0.0177,0.019,0.0184,0.0154,0.0176,0.0182,0.0183,0.0183,0.014,0.0136,0.0176,0.0176,0.0175,0.0175,0,0.0224,0.0241,0.0251,0.0266,0.027,0.0284,0.0275,0.0278,0.0267,0.0258,0.0266,0.0245,0.0244,0.0239,0.0227,0.0231,0.0204,0.0191,0.0161,0.0189,0.0142,0.0137,0.018,0.0179,0.0178,0.0177,0,0,0.0246,0.0276,0.028,0.0305,0.031,0.032,0.0342,0.0352,0.0368,0.0349,0.0363,0.0356,0.0326,0.0323,0.0297,0.0271,0.0243,0.0236,0.0233,0.0188,0.0168,0.0141,0.0132,0.0228,0.0227,0.0227,0.0131,0,0.0287,0.0341,0.0342,0.0397,0.0426,0.0413,0.0439,0.0441,0.0434,0.0438,0.0401,0.0405,0.0364,0.036,0.0328,0.0268,0.0234,0.027,0.0153,0.015,0.0116,0.0128,0.0226,0.0127,0.0126,0.0125,0.0124,0,0.0328,0.0362,0.0424,0.0471,0.0482,0.0509,0.0539,0.0559,0.055,0.0542,0.0523,0.0486,0.045,0.0408,0.0309,0.0331,0.0257,0.0201,0.0196,0.0151,0.0114,0.0095,0.0115,0.0115,0.0116,0.0117,0.0117,0,0.0358,0.0418,0.0473,0.0491,0.0536,0.0562,0.0583,0.059,0.0616,0.0603,0.0607,0.0551,0.0523,0.043,0.0306,0.0307,0.0182,0.0168,0.0071,0.0067,0.0097,0.0097,0.0097,0.0097,0.0097,0.0097,0.0098,0,0.0401,0.0446,0.0496,0.0527,0.0597,0.0607,0.067,0.0677,0.0692,0.0719,0.0661,0.0653,0.0527,0.0437,0.0322,0.0177,0.019,0.0075,0.0044,0.012,0.0123,0.0093,0.0094,0.0094,0.0095,0.0095,0.0096,0,0.0427,0.0458,0.0527,0.0588,0.0615,0.0663,0.0735,0.0774,0.0776,0.0805,0.0802,0.0727,0.0604,0.0463,0.0301,0.02,0.0064,0.0009,0.009,0.0065,-0.0039,-0.0034,-0.0106,-0.0108,-0.0109,-0.011,-0.0111,0,0.0445,0.0484,0.0573,0.0617,0.0651,0.0727,0.0779,0.0815,0.085,0.0844,0.0851,0.0751,0.0678,0.0429,0.0276,0.005,0.0018,-0.0058,-0.0039,-0.0035,-0.0058,-0.0051,-0.0044,-0.0114,-0.0114,-0.0114,-0.0115,0,0.0481,0.051,0.0566,0.066,0.0728,0.0809,0.0877,0.0908,0.0936,0.0943,0.0886,0.0757,0.0614,0.0422,0.0243,0.0084,-0.001,-0.0074,-0.0072,-0.0054,-0.0045,-0.0065,-0.0057,-0.012,-0.0119,-0.0118,-0.0118,0,0.0503,0.0543,0.0612,0.0695,0.0782,0.0851,0.0895,0.0926,0.096,0.0943,0.092,0.0767,0.0684,0.0438,0.0274,0.0112,0.0072,0.002,0.0016,0.002,0.0084,0.0117,0.0066,0,0,0,0,0,0.052,0.0562,0.064,0.0724,0.081,0.086,0.0939,0.0971,0.0997,0.0963,0.0942,0.0805,0.0558,0.0455,0.0288,0.024,0.004,0.0037,-0.0022,-0.0147,-0.0142,-0.009,0,0,0,0,0,0,0.0527,0.0599,0.0636,0.0731,0.079,0.0885,0.0936,0.0958,0.0937,0.0935,0.081,0.0752,0.0518,0.0652,0.028,0.0232,0.0168,-0.0072,-0.0076,-0.0151,-0.0145,-0.0141,-0.0085,0,0,0,0,0]}]]